This demonstration page uses our WeatherBlox Daily Observations layout. Learn more.

Left ArrowRight Arrow

Hourly Observations for February 8, 2017

Temp ( °F °C ) Dew Point ( °F °C ) Humidity (%) Winds ( mph kmh ) Pressure ( in mb ) Visibility ( mi km ) Precip ( " mm )
12:51 am 00:51 Clear 52 11.1 42 5.6 69 69 NW 9 15 30.04 1017 10 16 N/A
1:51 am 01:51 Clear 51 10.6 42 5.6 71 71 NW 8 13 30.03 1017 10 16 N/A
2:51 am 02:51 Clear 47 8.3 41 5 80 80 NW 7 11 30.03 1017 10 16 N/A
3:51 am 03:51 Clear 46 7.8 41 5 83 83 SSW 6 9 30.03 1017 10 16 N/A
4:51 am 04:51 Clear 42 5.6 39 3.9 89 89 NNE 6 9 30.06 1018 10 16 N/A
5:51 am 05:51 Clear 42 5.6 38 3.3 85 85 SE 6 9 30.08 1019 10 16 N/A
6:51 am 06:51 Clear 42 5.6 40 4.4 92 92 E 3 6 30.10 1019 10 16 N/A
7:51 am 07:51 Sunny 44 6.7 40 4.4 85 85 ESE 5 7 30.12 1020 10 16 N/A
8:51 am 08:51 Sunny 50 10 42 5.6 74 74 SE 3 6 30.14 1021 10 16 N/A
9:51 am 09:51 Sunny 54 12.2 42 5.6 64 64 S 5 7 30.15 1021 10 16 N/A
10:51 am 10:51 Sunny 58 14.4 43 6.1 58 58 N N/A 30.13 1020 10 16 N/A
11:51 am 11:51 Sunny 62 16.7 43 6.1 50 50 WSW 3 6 30.10 1019 10 16 N/A
12:51 pm 12:51 Sunny 65 18.3 43 6.1 45 45 NNW 6 9 30.06 1018 10 16 N/A
1:51 pm 13:51 Sunny 68 20 42 5.6 39 39 W 6 9 30.02 1017 10 16 N/A
2:51 pm 14:51 Sunny 70 21.1 42 5.6 37 37 VRB 3 6 30.01 1016 10 16 N/A
3:51 pm 15:51 Sunny 72 22.2 41 5 33 33 W 7 11 30.01 1016 10 16 N/A
4:51 pm 16:51 Sunny 70 21.1 42 5.6 37 37 W 5 7 30.02 1017 10 16 N/A
5:51 pm 17:51 Sunny 67 19.4 43 6.1 42 42 W 6 9 30.04 1017 10 16 N/A
6:51 pm 18:51 Clear 59 15 42 5.6 54 54 N 3 6 30.07 1018 10 16 N/A
7:51 pm 19:51 Clear with Light Rain 56 13.3 42 5.6 60 60 NNW 5 7 30.09 1019 10 16 N/A
8:51 pm 20:51 Clear 58 14.4 43 6.1 58 58 N N/A 30.09 1019 10 16 N/A
9:51 pm 21:51 Clear 54 12.2 41 5 62 62 ESE 6 9 30.09 1019 10 16 N/A
10:51 pm 22:51 Clear 52 11.1 41 5 66 66 N N/A 30.09 1019 10 16 N/A
11:51 pm 23:51 Clear 48 8.9 40 4.4 74 74 N N/A 30.11 1020 10 16 N/A

Powered by AerisWeather